This demonstration page uses our WeatherBlox Daily Observations layout. Learn more.

Hourly Observations for March 24, 2020

Temp ( °F °C ) Dew Point ( °F °C ) Humidity (%) Winds ( mph kmh ) Pressure ( in mb ) Visibility ( mi km ) Precip ( " mm )
12:15 am 00:15 Clear 43 6.1 40 4.7 91 91 SSE 7 11 29.93 1013 10 16.0934 0 0
12:35 am 00:35 Clear 42 5.4 40 4.2 92 92 SSE 7 11 29.95 1014 10 16.0934 0 0
12:55 am 00:55 Clear 44 6.4 42 5.3 93 93 SSE 8 13 29.95 1014 10 16.0934 0 0
1:15 am 01:15 Partly Cloudy 44 6.7 42 5.7 93 93 S 9 15 29.95 1014 10 16.0934 0 0
1:35 am 01:35 Partly Cloudy 44 6.5 42 5.5 93 93 S 8 13 29.94 1014 10 16.0934 0 0
1:55 am 01:55 Clear 43 6.2 42 5.4 95 95 S 8 13 29.94 1014 7 11.26538 0 0
2:15 am 02:15 Clear 43 5.9 41 5.2 95 95 SSE 7 11 29.94 1014 7 11.26538 0 0
2:35 am 02:35 Clear with Mist and Fog 42 5.5 41 4.9 96 96 SSE 3 6 29.93 1014 5 8.0467 0 0
2:55 am 02:55 Partly Cloudy with Mist and Fog 41 5.2 40 4.6 96 96 S 5 7 29.93 1013 4 6.43736 0 0
3:15 am 03:15 Cloudy with Fog 40 4.4 39 3.9 97 97 ESE 5 7 29.91 1013 0.25 0.402335 0 0
3:35 am 03:35 Cloudy with Mist and Fog 43 6.2 42 5.8 97 97 SE 6 9 29.89 1012 0.75 1.207005 0 0
3:55 am 03:55 Cloudy with Fog 45 7 44 6.6 97 97 SSE 3 6 29.88 1012 0.25 0.402335 0 0
4:15 am 04:15 Cloudy with Fog 45 7.4 45 7 97 97 S 7 11 29.88 1012 0.25 0.402335 0 0
4:35 am 04:35 Cloudy with Fog 46 7.5 45 7.1 97 97 Calm 29.87 1011 0.25 0.402335 0 0
4:55 am 04:55 Cloudy with Fog 46 7.5 45 7.2 98 98 S 5 7 29.88 1012 0.25 0.402335 0 0
5:15 am 05:15 Cloudy with Fog 46 7.5 45 7.2 98 98 S 5 7 29.88 1012 0.25 0.402335 0 0
5:35 am 05:35 Cloudy with Mist and Fog 46 7.6 45 7.3 98 98 S 6 9 29.88 1012 1.25 2.011675 0 0
5:55 am 05:55 Cloudy with Mist and Fog 46 7.6 45 7.3 98 98 S 5 7 29.88 1012 1 1.60934 0 0
6:15 am 06:15 Cloudy with Fog 46 7.6 45 7.3 98 98 S 5 7 29.88 1012 0.5 0.80467 0 0
6:35 am 06:35 Cloudy with Fog 46 7.6 45 7.3 98 98 Calm 29.88 1012 0.25 0.402335 0 0
6:55 am 06:55 Cloudy with Fog 46 7.6 45 7.3 98 98 Calm 29.89 1012 0.25 0.402335 0 0
7:15 am 07:15 Cloudy with Fog 46 7.5 45 7.2 98 98 Calm 29.9 1012 0.5 0.80467 0 0
7:35 am 07:35 Cloudy with Fog 46 7.5 45 7.2 98 98 Calm 29.91 1013 0.5 0.80467 0 0
7:55 am 07:55 Cloudy with Mist and Fog 46 7.5 45 7.1 97 97 Calm 29.92 1013 1.25 2.011675 0 0
8:15 am 08:15 Cloudy with Mist and Fog 46 7.7 46 7.5 99 99 Calm 29.91 1013 2.5 4.02335 0 0
8:35 am 08:35 Cloudy with Mist and Fog 46 7.9 46 7.6 98 98 SE 3 6 29.91 1013 2.5 4.02335 0 0
8:55 am 08:55 Cloudy with Fog 46 7.5 45 7.1 97 97 ESE 5 7 29.92 1013 0.5 0.80467 0 0
9:15 am 09:15 Cloudy with Fog 46 7.6 45 7.3 98 98 SE 5 7 29.92 1013 0.5 0.80467 0 0
9:35 am 09:35 Cloudy with Mist and Fog 47 8.1 46 7.8 98 98 SSE 3 6 29.93 1014 1.25 2.011675 0 0
9:55 am 09:55 Cloudy with Mist and Fog 47 8.3 46 8 98 98 S 5 7 29.94 1014 3 4.82802 0 0
10:15 am 10:15 Cloudy with Mist and Fog 48 9 48 8.7 98 98 SSE 6 9 29.92 1013 5 8.0467 0 0
10:35 am 10:35 Cloudy with Mist and Fog 49 9.3 48 9 98 98 S 7 11 29.92 1013 5 8.0467 0 0
10:55 am 10:55 Cloudy 49 9.5 49 9.2 98 98 SW 5 7 29.93 1013 10 16.0934 0 0
11:15 am 11:15 Cloudy 50 10 49 9.7 98 98 SW 6 9 29.91 1013 10 16.0934 0 0
11:35 am 11:35 Cloudy 52 11 48 9 88 88 SW 8 13 29.9 1013 10 16.0934 0 0
11:55 am 11:55 Cloudy 53 11.9 48 8.9 82 82 SW 7 11 29.89 1012 10 16.0934 0 0
12:15 pm 12:15 Mostly Cloudy 55 13 47 8.5 74 74 SSW 9 15 29.88 1012 10 16.0934 0 0
12:35 pm 12:35 Partly Cloudy 57 13.8 47 8.1 69 69 SSW 9 15 29.87 1011 10 16.0934 0 0
12:55 pm 12:55 Sunny 57 14 46 7.9 67 67 SSW 9 15 29.86 1011 10 16.0934 0 0
1:15 pm 13:15 Sunny 60 15.3 46 7.7 61 61 SSW 8 13 29.84 1010 10 16.0934 0 0
1:35 pm 13:35 Sunny 61 16.2 45 7.2 55 55 SSW 9 15 29.82 1010 10 16.0934 0 0
1:55 pm 13:55 Sunny 63 17 44 6.8 51 51 S 10 17 29.8 1009 10 16.0934 0 0
2:15 pm 14:15 Sunny 64 17.8 42 5.5 45 45 WSW 6 9 29.8 1009 10 16.0934 0 0
2:35 pm 14:35 Sunny 64 18 41 5 43 43 WSW 6 9 29.78 1009 10 16.0934 0 0
2:55 pm 14:55 Sunny 66 18.7 40 4.5 39 39 WSW 8 13 29.77 1008 10 16.0934 0 0
3:15 pm 15:15 Sunny 66 18.8 40 4.2 38 38 SW 8 13 29.76 1008 10 16.0934 0 0
3:35 pm 15:35 Sunny 68 19.9 39 3.9 35 35 SSW 10 17 29.74 1007 10 16.0934 0 0
3:55 pm 15:55 Sunny 68 20.1 39 3.7 34 34 SW 6 9 29.73 1007 10 16.0934 0 0
4:15 pm 16:15 Sunny 69 20.6 38 3.4 32 32 SSW 8 13 29.71 1006 10 16.0934 0 0
4:35 pm 16:35 Sunny 71 21.5 37 2.7 29 29 SSW 8 13 29.7 1006 10 16.0934 0 0
4:55 pm 16:55 Partly Cloudy 70 21.2 37 2.7 30 30 S 10 17 29.7 1006 10 16.0934 0 0
5:15 pm 17:15 Partly Cloudy 70 21.2 38 3.3 31 31 Calm 29.7 1006 10 16.0934 0 0
5:35 pm 17:35 Partly Cloudy 72 22 29 -1.7 20 20 W 14 22 29.68 1005 10 16.0934 0 0
5:55 pm 17:55 Partly Cloudy 72 22 29 -1.6 21 21 W 12 19 29.68 1005 10 16.0934 0 0
6:15 pm 18:15 Sunny 71 21.7 30 -1.3 21 21 W 12 19 29.68 1005 10 16.0934 0 0
6:35 pm 18:35 Sunny 70 21 31 -0.7 23 23 W 9 15 29.69 1005 10 16.0934 0 0
6:55 pm 18:55 Sunny 69 20.7 31 -0.3 25 25 NW 10 17 29.7 1006 10 16.0934 0 0
7:15 pm 19:15 Sunny 67 19.4 33 0.5 28 28 NW 6 9 29.71 1006 10 16.0934 0 0
7:35 pm 19:35 Sunny 65 18.1 33 0.4 30 30 WNW 3 6 29.73 1007 10 16.0934 0 0
7:55 pm 19:55 Clear 62 16.7 32 0.1 33 33 Calm 29.76 1008 10 16.0934 0 0
8:15 pm 20:15 Clear 62 16.6 32 0 33 33 Calm 29.75 1007 10 16.0934 0 0
8:35 pm 20:35 Clear 57 14 32 0.2 39 39 SSW 3 6 29.78 1008 10 16.0934 0 0
8:55 pm 20:55 Clear 52 11.3 42 5.3 67 67 SSE 8 13 29.8 1009 10 16.0934 0 0
9:15 pm 21:15 Clear 52 11 45 7.2 78 78 S 7 11 29.81 1010 10 16.0934 0 0
9:35 pm 21:35 Clear 51 10.8 46 7.5 80 80 SSE 8 13 29.82 1010 10 16.0934 0 0
9:55 pm 21:55 Clear 50 10.2 45 7.4 83 83 SSE 8 13 29.83 1010 10 16.0934 0 0
10:15 pm 22:15 Clear 49 9.5 45 7.1 85 85 SSE 7 11 29.83 1010 10 16.0934 0 0
10:35 pm 22:35 Clear 50 9.8 46 7.5 86 86 SSE 8 13 29.82 1010 10 16.0934 0 0
10:55 pm 22:55 Clear 49 9.3 45 7.1 86 86 SSE 9 15 29.83 1010 10 16.0934 0 0
11:15 pm 23:15 Clear 47 8.6 44 6.7 88 88 SSE 7 11 29.84 1010 10 16.0934 0 0
11:35 pm 23:35 Clear 47 8.1 44 6.5 90 90 S 6 9 29.84 1010 10 16.0934 0 0
11:55 pm 23:55 Clear 46 7.5 43 6 90 90 S 7 11 29.84 1010 10 16.0934 0 0

Powered by AerisWeather